Content
SEND FEEDBACK

Daily
Averages
Monthly
Summary
United States of America

BLACK HAWK, SOUTH DAKOTA


Home > North America > United States > South Dakota
Elevation: 3352 feet     Latitude: 44 05N     Longitude: 103 16W

WEATHER
 
SELECT A DAY
Number of Records: 204,116;   Date Range: 1/1/95 - 7/29/14
 
SHARE

PRINT THIS DATA

[ ← Previous Day ]
WEATHER ALMANAC - JANUARY 11, 2013
[ Next Day → ]
[ °C ]   °F
Weather ElementAverageHighLow
Temperature15.4 °F30.6 °F (12:55 am)6.6 °F (11:55 pm)
Dewpoint9.7 °F28.4 °F (12:49 am)-2.2 °F (10:25 pm)
Humidity78.5 %93 % (12:49 am)62 % (10:25 pm)
Barometer29.67 in29.96 in (10:55 pm)29.48 in (4:55 am)
Wind Speed30.6 mph40.3 mph (12:31 pm)
Wind Gust52.9 mph (12:31 pm)
Weather ElementAverage
Visibility3.7 mi
Wind DirectionNNW (334.4 °)

Weather ElementTotal
Precipitation---
Heating Degree Days46.4 (Base 65)
Averaged from 113 records on January 11, 2013
WEATHER CONDITIONS BREAKOUT
WIND DIRECTION BREAKOUT
WEATHER BY HOUR - JANUARY 11, 2013
[ °C ]   °F
Local TimeTemperatureDewpointHumidityBarometerVisibilityWind DirectionWind SpeedGust SpeedPrecipitationEventsConditions
12:49 AM30.2 °F28.4 °F93 %29.54 in10.0 miNorth (360°)23.0 mph29.9 mphOvercast
12:55 AM30.6 °F27.7 °F89 %29.52 in10.0 miNorth (350°)26.5 mph34.5 mphOvercast
1:16 AM30.2 °F26.6 °F86 %29.53 in10.0 miNorth (350°)21.9 mph33.4 mphOvercast
1:22 AM30.2 °F26.6 °F86 %29.53 in10.0 miNorth (350°)24.2 mph34.5 mphOvercast
1:55 AM28.8 °F26.2 °F90 %29.51 in10.0 miNorth (350°)27.6 mph39.1 mphOvercast
2:30 AM28.4 °F24.8 °F86 %29.50 in10.0 miNorth (350°)29.9 mph36.8 mphOvercast
2:55 AM26.8 °F24.4 °F91 %29.49 in10.0 miNorth (350°)31.1 mph43.7 mphOvercast
3:55 AM25.2 °F22.5 °F89 %29.49 in10.0 miNorth (350°)27.6 mph38.0 mphOvercast
3:57 AM24.8 °F23.0 °F93 %29.50 in10.0 miNorth (350°)26.5 mph38.0 mphOvercast
4:17 AM24.8 °F21.2 °F86 %29.49 in10.0 miNorth (350°)25.3 mph35.7 mphOvercast
4:25 AM24.8 °F21.2 °F86 %29.49 in10.0 miNorth (350°)31.1 mph35.7 mphOvercast
4:55 AM24.1 °F20.1 °F85 %29.48 in10.0 miNorth (350°)36.8 mph41.4 mphOvercast
5:55 AM22.8 °F18.7 °F84 %29.54 in10.0 miNNW (330°)24.2 mph35.7 mphOvercast
6:23 AM21.2 °F17.6 °F86 %29.52 in10.0 miNNW (340°)28.8 mph39.1 mphOvercast
6:55 AM21.4 °F16.9 °F83 %29.57 in10.0 miNNW (340°)17.3 mph26.5 mphOvercast
7:43 AM19.4 °F15.8 °F86 %29.60 in10.0 miNorth (350°)26.5 mph36.8 mphSnowLight Snow
7:55 AM19.9 °F15.8 °F84 %29.60 in2.5 miNorth (350°)26.5 mph34.5 mph0.00 inSnowLight Snow
7:56 AM19.4 °F15.8 °F86 %29.60 in2.0 miNorth (350°)26.5 mph34.5 mphSnowLight Snow
7:58 AM19.4 °F15.8 °F86 %29.60 in1.5 miNorth (350°)26.5 mph34.5 mphSnowLight Snow
8:06 AM19.4 °F15.8 °F86 %29.60 in1.8 miNorth (350°)24.2 mph34.5 mphSnowLight Snow
8:09 AM19.4 °F15.8 °F86 %29.60 in2.0 miNorth (350°)26.5 mph36.8 mphSnowLight Snow
8:15 AM19.4 °F15.8 °F86 %29.60 in1.0 miNorth (350°)26.5 mph38.0 mphSnowLight Snow
8:21 AM19.4 °F15.8 °F86 %29.60 in0.5 miNorth (350°)27.6 mph38.0 mphSnowLight Snow
8:25 AM19.4 °F15.8 °F86 %29.60 in0.5 miNorth (350°)27.6 mph35.7 mphSnowSnow
8:40 AM17.6 °F14.0 °F86 %29.60 in0.5 miNorth (350°)31.1 mph42.6 mphSnowSnow
8:55 AM17.1 °F13.3 °F85 %29.60 in0.5 miNorth (350°)32.2 mph40.3 mph0.00 inFog-SnowLight Freezing Fog
9:27 AM15.8 °F12.2 °F86 %29.64 in0.8 miNNW (340°)23.0 mph35.7 mphSnowLight Snow
9:31 AM15.8 °F12.2 °F86 %29.64 in1.0 miNorth (350°)19.6 mph35.7 mphSnowLight Snow
9:35 AM15.8 °F10.4 °F79 %29.64 in1.2 miNNW (340°)25.3 mph35.7 mphSnowLight Snow
9:40 AM15.8 °F10.4 °F79 %29.64 in1.0 miNNW (340°)27.6 mph34.5 mphSnowLight Snow
9:43 AM15.8 °F10.4 °F79 %29.64 in0.8 miNNW (340°)26.5 mph34.5 mphSnowLight Snow
9:47 AM15.8 °F10.4 °F79 %29.64 in0.8 miNNW (340°)25.3 mph36.8 mphSnowLight Snow
9:55 AM15.4 °F10.0 °F79 %29.63 in0.8 miNNW (340°)27.6 mph39.1 mph0.00 inSnowLight Snow
9:57 AM15.8 °F10.4 °F79 %29.64 in1.0 miNNW (340°)28.8 mph39.1 mphSnowLight Snow
10:11 AM15.8 °F10.4 °F79 %29.63 in0.8 miNNW (340°)33.4 mph43.7 mphSnowLight Snow
10:27 AM15.8 °F8.6 °F73 %29.64 in1.0 miNNW (340°)32.2 mph42.6 mphSnowLight Snow
10:31 AM15.8 °F8.6 °F73 %29.64 in1.2 miNNW (340°)29.9 mph40.3 mphSnowLight Snow
10:33 AM15.8 °F8.6 °F73 %29.64 in1.5 miNNW (340°)28.8 mph40.3 mphSnowLight Snow
10:35 AM15.8 °F8.6 °F73 %29.64 in1.8 miNNW (340°)24.2 mph40.3 mphSnowLight Snow
10:55 AM15.1 °F9.0 °F77 %29.64 in1.5 miNNW (340°)31.1 mph40.3 mph0.00 inSnowLight Blowing Snow
11:02 AM14.0 °F8.6 °F79 %29.63 in1.0 miNNW (340°)33.4 mph41.4 mphSnowLight Blowing Snow
11:08 AM14.0 °F8.6 °F79 %29.64 in0.8 miNNW (340°)29.9 mph41.4 mphSnowLight Blowing Snow
11:17 AM14.0 °F10.4 °F86 %29.64 in1.0 miNNW (340°)32.2 mph39.1 mphSnowLight Blowing Snow
11:25 AM14.0 °F10.4 °F86 %29.63 in0.5 miNNW (340°)31.1 mph40.3 mphSnowLight Blowing Snow
11:33 AM14.0 °F10.4 °F86 %29.62 in0.5 miNNW (340°)35.7 mph50.6 mphSnowBlowing Snow
11:39 AM14.0 °F10.4 °F86 %29.62 in0.2 miNNW (330°)38.0 mph50.6 mphSnowBlowing Snow
11:42 AM14.0 °F10.4 °F86 %29.61 in0.5 miNNW (330°)35.7 mph50.6 mphSnowBlowing Snow
11:44 AM14.0 °F10.4 °F86 %29.62 in0.5 miNNW (340°)34.5 mph46.0 mphSnowBlowing Snow
11:55 AM14.0 °F9.0 °F80 %29.61 in0.5 miNNW (340°)36.8 mph48.3 mph0.00 inSnowBlowing Snow
11:59 AM14.0 °F8.6 °F79 %29.60 in0.5 miNNW (340°)36.8 mph48.3 mphSnowBlowing Snow
12:05 PM14.0 °F8.6 °F79 %29.60 in0.8 miNNW (340°)33.4 mph46.0 mphSnowBlowing Snow
12:07 PM14.0 °F8.6 °F79 %29.60 in0.8 miNNW (330°)35.7 mph44.9 mphSnowBlowing Snow
12:13 PM14.0 °F8.6 °F79 %29.61 in0.8 miNNW (330°)34.5 mph44.9 mphSnowBlowing Snow
12:16 PM14.0 °F8.6 °F79 %29.60 in1.0 miNNW (330°)32.2 mph43.7 mphSnowBlowing Snow
12:20 PM14.0 °F8.6 °F79 %29.60 in1.2 miNNW (330°)36.8 mph47.2 mphSnowBlowing Snow
12:23 PM14.0 °F8.6 °F79 %29.60 in1.5 miNNW (330°)36.8 mph47.2 mphSnowBlowing Snow
12:25 PM14.0 °F8.6 °F79 %29.61 in1.8 miNNW (330°)34.5 mph47.2 mphSnowBlowing Snow
12:26 PM14.0 °F8.6 °F79 %29.61 in2.0 miNNW (330°)35.7 mph47.2 mphSnowBlowing Snow
12:31 PM14.0 °F6.8 °F73 %29.60 in1.8 miNNW (330°)40.3 mph52.9 mphSnowBlowing Snow
12:34 PM14.0 °F6.8 °F73 %29.61 in1.5 miNNW (330°)36.8 mph52.9 mphSnowBlowing Snow
12:39 PM14.0 °F6.8 °F73 %29.61 in1.8 miNNW (330°)36.8 mph52.9 mphSnowBlowing Snow
12:42 PM14.0 °F6.8 °F73 %29.60 in2.0 miNW (320°)36.8 mph44.9 mphSnowBlowing Snow
1:04 PM14.0 °F6.8 °F73 %29.63 in9.0 miNW (320°)33.4 mph44.9 mphSnowBlowing Snow
1:09 PM14.0 °F6.8 °F73 %29.64 in7.0 miNW (320°)35.7 mph47.2 mphOvercast
1:11 PM14.0 °F6.8 °F73 %29.63 in6.0 miNW (320°)36.8 mph47.2 mphSnowBlowing Snow
1:14 PM14.0 °F6.8 °F73 %29.63 in4.0 miNW (320°)36.8 mph47.2 mphSnowBlowing Snow
1:20 PM14.0 °F6.8 °F73 %29.65 in2.5 miNW (320°)33.4 mph44.9 mphSnowBlowing Snow
1:26 PM14.0 °F6.8 °F73 %29.65 in2.0 miNW (320°)33.4 mph41.4 mphSnowBlowing Snow
1:32 PM14.0 °F6.8 °F73 %29.66 in1.8 miNW (320°)32.2 mph40.3 mphSnowBlowing Snow
1:34 PM14.0 °F6.8 °F73 %29.66 in1.5 miNW (320°)31.1 mph40.3 mphSnowBlowing Snow
1:38 PM14.0 °F6.8 °F73 %29.67 in1.2 miNW (320°)29.9 mph40.3 mphSnowBlowing Snow
1:45 PM14.0 °F6.8 °F73 %29.66 in1.0 miNNW (330°)32.2 mph42.6 mphSnowBlowing Snow
1:46 PM14.0 °F6.8 °F73 %29.66 in1.0 miNW (320°)29.9 mph42.6 mphSnowBlowing Snow
1:49 PM14.0 °F8.6 °F79 %29.66 in1.0 miNW (320°)34.5 mph42.6 mphSnowBlowing Snow
1:54 PM14.0 °F6.8 °F73 %29.66 in0.8 miNNW (330°)29.9 mph42.6 mphSnowBlowing Snow
1:55 PM13.8 °F7.7 °F77 %29.66 in0.8 miNW (320°)31.1 mph42.6 mph0.00 inSnowBlowing Snow
2:23 PM14.0 °F6.8 °F73 %29.67 in0.8 miNW (320°)32.2 mph46.0 mphSnowBlowing Snow
2:36 PM14.0 °F8.6 °F79 %29.69 in0.8 miNNW (330°)29.9 mph41.4 mphSnowLight Snow
2:47 PM12.2 °F8.6 °F85 %29.70 in0.5 miNW (320°)27.6 mph36.8 mphSnowSnow
2:55 PM12.9 °F8.4 °F82 %29.71 in0.5 miNW (320°)33.4 mph38.0 mph0.00 inSnowSnow
3:06 PM12.2 °F8.6 °F85 %29.71 in0.5 miNW (320°)28.8 mph35.7 mphSnowSnow
3:08 PM12.2 °F8.6 °F85 %29.72 in0.2 miNW (320°)29.9 mph35.7 mphSnowHeavy Snow
3:22 PM12.2 °F8.6 °F85 %29.73 in0.2 miNW (320°)31.1 mph36.8 mphFog-SnowLight Freezing Fog
3:44 PM12.2 °F8.6 °F85 %29.73 in0.5 miNW (320°)31.1 mph38.0 mphSnowSnow
3:55 PM12.2 °F7.9 °F83 %29.73 in0.5 miNW (320°)32.2 mph40.3 mph0.00 inSnowSnow
3:58 PM12.2 °F8.6 °F85 %29.73 in0.5 miNW (320°)36.8 mph43.7 mphSnowSnow
4:07 PM12.2 °F6.8 °F79 %29.74 in0.5 miNW (320°)34.5 mph43.7 mphSnowSnow
4:12 PM12.2 °F6.8 °F79 %29.75 in0.8 miNNW (330°)32.2 mph46.0 mphSnowLight Snow
4:19 PM12.2 °F6.8 °F79 %29.75 in1.0 miNNW (330°)31.1 mph43.7 mphSnowLight Snow
4:30 PM12.2 °F6.8 °F79 %29.75 in1.5 miNNW (330°)28.8 mph43.7 mphSnowLight Snow
4:33 PM12.2 °F5.0 °F73 %29.75 in2.0 miNNW (330°)29.9 mph43.7 mphSnowLight Snow
4:34 PM12.2 °F5.0 °F73 %29.74 in2.5 miNNW (330°)31.1 mph41.4 mphSnowLight Snow
4:36 PM12.2 °F5.0 °F73 %29.74 in2.0 miNNW (330°)32.2 mph41.4 mphSnowLight Snow
4:41 PM12.2 °F5.0 °F73 %29.75 in0.8 miNNW (330°)33.4 mph42.6 mphSnowLight Snow
4:52 PM12.2 °F5.0 °F73 %29.76 in2.5 miNNW (330°)35.7 mph42.6 mphSnowLight Snow
4:54 PM12.2 °F5.0 °F73 %29.76 in3.0 miNNW (330°)33.4 mph42.6 mphSnowLight Snow
4:55 PM12.0 °F5.2 °F74 %29.76 in4.0 miNNW (330°)32.2 mph42.6 mph0.00 inSnowLight Snow
5:15 PM12.2 °F3.2 °F67 %29.77 in3.0 miNNW (330°)33.4 mph43.7 mphSnowLight Snow
5:55 PM11.5 °F3.0 °F69 %29.77 in4.0 miNW (320°)36.8 mph44.9 mph0.00 inSnowLight Snow
6:55 PM10.4 °F1.9 °F69 %29.82 in7.0 miNNW (330°)33.4 mph47.2 mph0.00 inSnowLight Snow
7:45 PM10.4 °F1.4 °F67 %29.86 in10.0 miNNW (330°)28.8 mph33.4 mphOvercast
7:55 PM10.0 °F1.8 °F69 %29.87 in10.0 miNNW (330°)29.9 mph34.5 mph0.00 inOvercast
8:16 PM10.4 °F1.4 °F67 %29.89 in10.0 miNNW (330°)28.8 mph40.3 mphLight Drizzle
8:30 PM8.6 °F-0.4 °F67 %29.90 in10.0 miNNW (330°)31.1 mph40.3 mphOvercast
8:31 PM8.6 °F-0.4 °F67 %29.89 in10.0 miNNW (330°)29.9 mph40.3 mphLight Drizzle
8:35 PM8.6 °F-0.4 °F67 %29.89 in10.0 miNNW (330°)27.6 mph36.8 mphOvercast
8:46 PM8.6 °F-0.4 °F67 %29.89 in10.0 miNNW (340°)29.9 mph35.7 mphSnowLight Snow
8:55 PM9.1 °F-0.8 °F64 %29.89 in10.0 miNNW (330°)29.9 mph35.7 mph0.00 inSnowLight Snow
9:55 PM8.6 °F0.3 °F69 %29.92 in10.0 miNNW (330°)25.3 mph31.1 mph0.00 inSnowLight Snow
10:25 PM8.6 °F-2.2 °F62 %29.94 in10.0 miNNW (330°)25.3 mph39.1 mphOvercast
10:27 PM8.6 °F-2.2 °F62 %29.94 in10.0 miNNW (330°)27.6 mph39.1 mphSnowLight Snow
10:55 PM7.0 °F0.0 °F73 %29.96 in10.0 miNNW (330°)25.3 mph0.00 inSnowLight Snow
11:55 PM6.6 °F-1.5 °F69 %29.96 in9.0 miNNW (330°)26.5 mph33.4 mph0.00 inSnowLight Snow
Hourly data recorded from KRCA, located miles away from Black Hawk, South Dakota







STORIES FROM OUR PARTNERS